DMSP 5D-2 F13 DEB, 42265

Orbit data source: Space-Track

DMSP 5D-2 F13 DEB, 42265 is space debris in SSO originally from a launch on Fri, 24 Mar 1995 UTC launched from the Air Force Western Test Range (AFWTR). Debris objects in space refer to the collection of defunct objects orbiting the Earth. Examples of debris include non-operational satellites, rocket bodies, and fragments generated from explosions, collisions, or faulty payload assembly.

Loading next visibility...
Identifier
42265, 1995-015GF
Orbit
SSO
Country
Flag of USUS
Related business
Manufacturer
Unknown
Mission
Spacecraft
Bus & Motor
Unknown
Mass
Unknown
Launch date (UTC)
1995-03-24 (31 years ago)
Launch vehicle
Unknown
Launch site
Air Force Western Test Range (AFWTR)
Object type
Payload
Rocket body
Debris
Shape & HBR
Unknown shape, 0.1 m
Radar Cross Section
Small (<0.1 m²)

Expand to show TLE details & history
Last TLE update: 13 hours ago

TLE from 13 hours ago
0 DMSP 5D-2 F13 DEB
1 42265U 95015GF  26095.05884039  .00006164  00000-0  20354-2 0  9991
2 42265  98.6781 133.2743 0004371 203.8217 156.2768 14.38386375538099
Epoch: 2026-04-05T01:24Z
TLE epoch observation values (Epoch: 2026-04-05T01:24:43.809Z)
Latitude
-0.00004°
Longitude
-81.27794°
Altitude
769.634 km
Speed
7.468 km/s
True Right ascension
08h 53m 05s
True Declination
0° 00' 00"
Sunlit
Object was in full shadow at epoch
Visualization orbit readout
Latitude
Unknown
Longitude
Unknown
Altitude
Unknown
Speed
Unknown
Apparent Right ascension
Unknown
Apparent Declination
Unknown
Sunlit
N/A
Visualization observer readout
Local Sidereal Time
19:50:16
Azimuth
Unknown
Elevation
Unknown
Doppler factor
Unknown
Orbital elements
Apogee altitude
764.088 km
Perigee altitude
757.847 km
Semi-major axis
7,139.104 km
Eccentricity
0.00044
Inclination
98.6781°
RAAN
133.2743°
Arg. of periapsis
203.8217°
True anomaly
156.29694°
Mean anomaly
156.2768°
Eccentric anomaly
156.28687°
Mean motion
3.59814 °/min
Orbital period
100.05 mins
BSTAR
0.0020354
Loading maneuver chart data...
Computing Atmospheric mass density...

Documentation

Showing up to 5 results
|